ARIANE 44LP DEB, 33544

Orbit data source: Space-Track

ARIANE 44LP DEB, 33544 is space debris in HEO originally from a launch on Sun, 11 Dec 1988 UTC launched from the French Guiana (FRGUI). Debris objects in space refer to the collection of defunct objects orbiting the Earth. Examples of debris include non-operational satellites, rocket bodies, and fragments generated from explosions, collisions, or faulty payload assembly.

Loading next visibility...
Identifier
33544, 1988-109T
Orbit
HEO
Country
Flag of FRFR
Related business
Manufacturer
Unknown
Mission
Spacecraft
Bus & Motor
Unknown
Mass
Unknown
Launch date (UTC)
1988-12-11 (38 years ago)
Launch vehicle
Unknown
Launch site
French Guiana (FRGUI)
Object type
Payload
Rocket body
Debris
Shape & HBR
Unknown shape, 0.4 m
Radar Cross Section
Medium (>0.1 m² and <1 m²)

Expand to show TLE details & history
Last TLE update: 2 days ago

TLE from 2 days ago
0 ARIANE 44LP DEB
1 33544U 88109T   26171.25486736  .00000895  00000-0  14681-2 0  9997
2 33544   7.1093  42.9770 7156958  77.2282 347.9800  2.38030355203543
Epoch: 2026-06-20T06:07Z
TLE epoch observation values (Epoch: 2026-06-20T06:07:00.539Z)
Latitude
-0.00005°
Longitude
42.69008°
Altitude
3,582.117 km
Speed
7.95 km/s
True Right ascension
02h 51m 39s
True Declination
0° 00' 00"
Sunlit
Object was in daylight at epoch
Visualization orbit readout
Latitude
Unknown
Longitude
Unknown
Altitude
Unknown
Speed
Unknown
Apparent Right ascension
Unknown
Apparent Declination
Unknown
Sunlit
N/A
Visualization observer readout
Local Sidereal Time
01:06:01
Azimuth
Unknown
Elevation
Unknown
Doppler factor
Unknown
Orbital elements
Apogee altitude
34,283.533 km
Perigee altitude
359.819 km
Semi-major axis
23,699.813 km
Eccentricity
0.7157
Inclination
7.1093°
RAAN
42.977°
Arg. of periapsis
77.2282°
True anomaly
282.32523°
Mean anomaly
347.98°
Eccentric anomaly
323.70875°
Mean motion
0.59488 °/min
Orbital period
605.17 mins
BSTAR
0.0014681
Loading maneuver chart data...
Computing Atmospheric mass density...
Loading historical data...
Loading historical data...
Loading historical data...
Loading historical data...
Loading historical data...
Loading historical data...
Loading historical data...

Documentation

Showing up to 5 results
|